Regional Weather Roundup
Issued by NWS

Home | Current Version | Previous Version | Graphics & Text | Print | Product List | Glossary On
Versions: 1 2 3 4 5 6 7 8 9 10 11 12 13 14 15 16 17 18 19 20 21 22 23 24 25 26 27 28 29 30 31 32 33 34 35 36 37 38 39 40 41 42 43 44 45 46 47 48 49 50
088
ASUS43 KBIS 271502
RWRND

NORTH DAKOTA REGIONAL WEATHER ROUNDUP
NATIONAL WEATHER SERVICE BISMARCK ND
1000 AM CDT THU APR 27 2017

NOTE: "FAIR" INDICATES FEW OR NO CLOUDS BELOW 12,000 FEET WITH NO
SIGNIFICANT WEATHER AND/OR OBSTRUCTIONS TO VISIBILITY.


NDZ001>003-009>011-017-271600-
NORTHWEST NORTH DAKOTA

CITY           SKY/WX    TMP DP  RH WIND       PRES   REMARKS
WILLISTON      FAIR      40  25  55 E9        29.76F
MINOT          FAIR      38  19  46 NE10      29.77S
MINOT AFB      SUNNY     36  18  48 NE8       29.77S
$$

NDZ018>021-031>035-040>046-271600-
SOUTHWEST NORTH DAKOTA

CITY           SKY/WX    TMP DP  RH WIND       PRES   REMARKS
BISMARCK       CLOUDY    38  20  48 NE9       29.76R
DICKINSON      FAIR      33  24  69 E9        29.70S
GARRISON         N/A     36  18  48 NE9       29.75S
HETTINGER ARPT CLOUDY    31  25  78 NE10      29.72R
$$

NDZ004>008-012>016-024-026-027-054-271600-
NORTHEAST NORTH DAKOTA

CITY           SKY/WX    TMP DP  RH WIND       PRES   REMARKS
GRAND FORKS    PTSUNNY   30  23  75 N9        29.71F
GRND FRKS AFB  SUNNY     31  22  69 N9        29.71F
DEVILS LAKE    FAIR      34  17  50 N16       29.74S
$$

NDZ022-023-025-028>030-036>039-047>053-271600-
SOUTHEAST NORTH DAKOTA

CITY           SKY/WX    TMP DP  RH WIND       PRES   REMARKS
FARGO          MIX PCPN  28  25  88 N14       29.70S WCI  17
JAMESTOWN      FAIR      34  22  61 N16       29.71F
$$





USA.gov is the U.S. government's official web portal to all federal, state and local government web resources and services.